Skip Page Navigation
NASA JPL Caltech
NASA Logo - Jet Propulsion Laboratory + View the NASA Portal
+ Center for Near-Earth Object Studies
JPL Home Earth Solar System Stars & Galaxies Technology
JPL Solar System Dynamics
BODIES ORBITS EPHEMERIDES TOOLS PHYSICAL DATA DISCOVERY FAQ SITE MAP
IMPORTANT: The SSD Announcement email list is now available. Major changes are coming in the near future, including possible hostname and/or URL changes. To be notified of such changes, subscribe to this email list.

Please visit this page for more details.


JPL Small-Body Database Browser
Search: [ help ]  
193094 (2000 GT110)
Classification: Main-belt Asteroid          SPK-ID: 2193094
Ephemeris | Orbit Diagram | Orbital Elements | Mission Design | Physical Parameters | Discovery Circumstances ]

[ show orbit diagram ]
Orbital Elements at Epoch 2458600.5 (2019-Apr-27.0) TDB
Reference: JPL 11 (heliocentric ecliptic J2000)
 Element Value Uncertainty (1-sigma)   Units 
e .1521141648266367 8.0985e-08  
a 2.318380847322104 1.6445e-08 au
q 1.965722280981632 1.8894e-07 au
i 3.44468738323973 1.0188e-05 deg
node 333.268741400585 0.00011139 deg
peri 244.7681417756336 0.00011522 deg
M 128.7624301223006 3.0346e-05 deg
tp 2458139.328711665323
(2018-Jan-20.82871167)
0.00010634 TDB
period 1289.364169678948
3.53
1.3718e-05
3.756e-08
d
yr
n .2792073864512926 2.9707e-09 deg/d
Q 2.671039413662577 1.8946e-08 au
  Orbit Determination Parameters
   # obs. used (total)      165  
   data-arc span      5681 days (15.55 yr)  
   first obs. used      2000-03-27  
   last obs. used      2015-10-16  
   planetary ephem.      DE431  
   SB-pert. ephem.      SB431-N16  
   condition code      0  
   norm. resid. RMS      .63898  
   source      ORB  
   producer      Otto Matic  
   solution date      2017-Apr-11 05:49:23  

Additional Information
 Earth MOID = .961558 au 
 Jupiter MOID = 2.3138 au 
 T_jup = 3.561 
[ show covariance matrix ]

Ephemeris | Orbit Diagram | Orbital Elements | Mission Design | Physical Parameters | Discovery Circumstances ]

Physical Parameter Table
Parameter Symbol Value Units Sigma Reference Notes
absolute magnitude H 17.0   n/a MPO348491  

193094 (2000 GT110)          Discovered 2000-Apr-02 by LONEOS at Anderson Mesa
Reference: 20081113/Numbers.arcLast Updated: 2008-11-17

Alternate Designations
 2000 GT110 = 2005 UC290 
Ephemeris | Orbit Diagram | Orbital Elements | Mission Design | Physical Parameters | Discovery Circumstances ]
ABOUT SSD CREDITS/AWARDS PRIVACY/COPYRIGHT GLOSSARY LINKS
FirstGov 2019-Oct-18 12:48 UT
(server date/time)  
NASA Home Page
Site Manager:   Ryan S. Park
Webmaster  Alan B. Chamberlin